Vorticity
10 11 12 11 5 9 10 4 8 9 7 8 7 7 5 5 7 6 7 6 7 7 6 6 5 4 4 -1 10 4 4 4 6 7 6 7 7 12 13 9 7 5 8 4 4 5 7
11 10 11 11 14 6 8 11 6 7 8 10 7 7 7 6 4 4 5 5 5 5 5 5 5 6 4 -2 7 5 6 6 7 7 8 11 11 9 6 7 5 -0 7 2 7 8 14
6 11 12 11 9 16 7 7 9 9 6 5 9 10 9 7 6 6 6 5 5 5 5 5 7 5 4 8 12 7 6 8 9 10 10 8 5 5 3 5 12 3 7 7 19 2 6
4 5 9 13 10 7 12 12 7 8 9 8 6 6 7 9 9 8 8 8 7 8 8 8 6 4 10 11 8 7 9 10 8 7 6 6 5 6 6 5 6 7 22 9 -5 7 11
3 4 4 7 11 14 10 11 12 10 7 8 9 7 6 7 7 7 7 7 7 7 8 8 6 8 7 7 7 8 7 7 7 7 6 6 6 6 7 5 12 14 1 8 15 9 2
3 4 4 5 5 8 9 12 12 14 12 8 8 8 7 6 6 7 7 6 6 7 9 8 5 -2 10 8 6 8 8 9 8 8 7 8 9 6 8 9 4 1 11 3 6 2 5
3 3 4 4 5 4 7 7 8 11 13 14 12 7 7 9 9 9 6 5 3 4 2 16 14 14 5 7 6 9 9 9 8 8 10 10 11 9 10 10 7 7 6 6 5 -0 4
3 3 4 4 4 4 5 4 6 9 9 13 14 13 11 9 5 6 9 1 14 2 8 12 9 12 10 12 10 8 1 10 8 10 9 9 14 10 8 7 9 5 6 2 12 1 6
4 3 3 4 5 4 4 5 5 5 5 9 13 21 12 12 7 14 7 4 2 -0 4 3 -5 10 12 6 9 9 7 10 7 7 11 17 10 6 8 8 6 7 3 2 1 5 12
3 4 4 4 3 5 5 4 5 6 5 4 8 10 17 19 17 6 5 8 6 4 5 3 7 -1 16 9 -4 7 9 9 8 9 16 3 3 3 12 8 4 11 -3 5 7 13 12
3 3 4 5 5 4 5 6 5 5 6 6 6 7 11 10 20 16 9 4 -4 9 -2 15 5 6 6 12 9 6 6 5 11 10 12 13 3 13 11 2 2 -4 7 8 6 25 15
3 3 5 6 6 7 7 6 5 5 5 6 6 5 7 7 9 8 11 12 10 9 6 2 3 9 9 5 6 2 5 6 14 11 7 -2 15 10 4 3 -0 12 8 22 18 22 16
3 3 5 6 7 7 7 7 7 4 5 6 6 7 5 6 6 9 11 16 4 13 14 3 3 9 9 4 6 2 7 6 12 15 -4 10 11 7 9 -11 15 5 12 16 15 11 0
3 4 6 8 8 7 7 7 7 7 6 6 5 5 7 4 6 7 10 11 11 4 5 7 8 12 11 5 8 -3 8 3 18 8 10 13 10 6 -0 -5 6 12 2 9 10 7 -6
4 6 7 7 7 7 7 8 7 8 8 8 8 7 6 6 6 6 9 7 6 4 1 3 8 15 10 -2 7 13 0 24 4 0 11 11 12 -0 -6 21 13 -1 17 -0 5 16 15
6 8 7 6 7 7 7 8 8 8 8 8 8 8 6 10 4 7 7 5 8 3 2 4 15 10 0 -2 15 7 17 5 10 -1 13 7 16 15 13 3 11 16 6 4 16 9 13
8 8 7 7 7 7 7 7 7 8 8 8 8 8 9 5 6 7 7 7 6 7 5 8 0 3 4 7 6 5 12 0 18 17 4 -2 21 -9 1 7 1 6 6 6 7 3 6
7 9 8 9 8 7 7 7 8 7 7 7 8 12 2 6 7 3 10 5 8 10 2 6 10 6 7 9 13 15 -1 1 -5 -3 4 11 8 7 1 16 13 10 10 10 4 18 -0
9 8 8 6 8 8 8 7 8 7 8 6 7 7 4 10 6 5 8 20 5 7 10 13 -0 -2 8 9 14 15 8 5 6 8 1 -12 6 13 16 23 18 8 -11 1 13 10 -2
7 9 9 8 6 7 7 8 9 7 7 8 6 16 4 6 13 22 22 3 8 14 5 6 8 13 10 8 12 -2 2 -0 -1 5 6 10 15 -10 -32 -32 -17 -12 -1 0 -1 7 -9
8 7 6 5 5 5 7 6 7 9 7 8 7 10 7 -3 -7 3 1 4 2 7 8 12 9 10 10 8 10 8 15 15 13 13 10 12 5 9 2 4 5 3 6 5 7 5 -1
10 7 7 7 7 9 9 9 5 8 12 12 9 9 12 10 10 11 12 5 2 5 6 6 9 10 9 5 4 -1 -4 5 6 5 7 9 14 8 4 10 17 20 20 10 10 16 13
6 7 8 8 9 9 8 7 10 8 9 8 11 10 9 9 13 11 10 10 11 10 13 11 15 10 6 3 -0 3 6 6 1 2 6 8 2 2 20 20 12 47 50 50 25 13 20
10 11 11 11 7 7 10 9 8 7 8 7 9 14 13 9 9 10 9 8 8 10 9 8 8 6 6 7 7 7 5 10 15 16 24 14 15 19 5 20 35 37 26 13 -2 -6 -0
6 7 8 7 11 11 8 9 9 9 12 13 10 10 8 9 8 7 7 7 9 8 8 6 7 7 4 6 14 28 18 44 52 15 24 33 29 -5 -8 11 -26 10 51 45 40 19 14
9 10 -0 11 13 7 9 7 9 11 9 10 8 10 10 7 11 13 16 14 9 7 8 8 11 15 15 10 14 21 7 -1 28 3 5 3 22 9 18 2 -3 1 -7 -9 -12 11 10
16 7 19 2 16 11 -2 12 21 18 14 11 12 14 14 12 12 14 14 13 9 6 4 7 8 18 21 15 11 20 10 -1 15 11 7 16 17 16 9 -8 11 10 7 16 42 31 4
14 4 13 12 -4 9 16 6 5 7 10 7 14 12 8 4 5 7 9 11 12 13 17 18 15 10 25 27 21 18 15 4 14 1 -5 -2 5 -5 24 19 32 19 10 -24 -28 -20 10
18 25 3 4 -4 -17 2 7 9 7 -5 16 12 5 4 8 -8 -7 -1 3 3 -1 0 7 7 -2 -4 9 3 9 3 -6 -11 -8 2 13 -3 -12 -7 -33 -54 -49 -23 -3 -3 -7 4
Height
3129 3125 3121 3118 3113 3111 3108 3105 3102 3101 3100 3098 3096 3095 3096 3097 3097 3099 3102 3103 3107 3112 3114 3118 3121 3123 3126 3129 3131 3133 3135 3137 3138 3140 3141 3142 3143 3144 3144 3145 3145 3145 3145 3145 3144 3143 3141
3134 3130 3126 3122 3119 3116 3114 3112 3108 3107 3105 3104 3103 3103 3102 3103 3104 3105 3106 3109 3113 3116 3119 3121 3124 3125 3128 3131 3132 3134 3136 3138 3139 3140 3141 3142 3143 3143 3143 3143 3144 3144 3143 3142 3142 3140 3140
3140 3136 3131 3128 3124 3121 3118 3117 3115 3113 3111 3109 3109 3109 3108 3107 3108 3111 3113 3115 3117 3120 3122 3125 3126 3128 3130 3133 3133 3135 3137 3139 3139 3140 3140 3141 3142 3143 3142 3142 3142 3141 3141 3139 3139 3139 3137
3145 3142 3138 3133 3130 3126 3124 3121 3119 3118 3117 3116 3114 3114 3114 3115 3116 3116 3118 3120 3121 3123 3125 3127 3129 3131 3132 3134 3135 3136 3138 3139 3139 3139 3140 3140 3140 3140 3140 3140 3139 3139 3139 3137 3138 3136 3134
3149 3146 3143 3139 3136 3132 3129 3126 3123 3122 3121 3120 3120 3119 3118 3118 3120 3121 3121 3123 3125 3127 3128 3130 3132 3132 3134 3135 3136 3137 3138 3138 3138 3138 3138 3138 3138 3138 3138 3138 3138 3137 3136 3136 3135 3133 3131
3153 3150 3147 3145 3141 3138 3134 3131 3129 3126 3125 3124 3124 3124 3123 3123 3123 3124 3125 3126 3127 3128 3129 3131 3132 3136 3136 3136 3136 3136 3137 3137 3137 3136 3137 3137 3137 3136 3136 3136 3136 3135 3134 3133 3132 3131 3129
3156 3154 3151 3149 3146 3143 3140 3137 3134 3132 3130 3128 3127 3127 3127 3127 3127 3127 3128 3129 3133 3134 3132 3132 3134 3134 3135 3136 3137 3137 3137 3136 3136 3136 3135 3135 3136 3135 3135 3135 3134 3134 3132 3129 3128 3127 3125
3158 3156 3154 3152 3150 3147 3144 3141 3139 3136 3134 3132 3130 3129 3129 3130 3130 3130 3132 3132 3133 3136 3135 3135 3135 3136 3136 3136 3137 3137 3137 3137 3135 3135 3134 3135 3134 3134 3134 3133 3132 3131 3129 3126 3125 3125 3123
3161 3158 3156 3154 3152 3150 3148 3145 3142 3139 3137 3135 3133 3131 3130 3131 3131 3131 3132 3134 3134 3135 3137 3138 3137 3137 3137 3138 3137 3137 3136 3135 3134 3134 3133 3133 3134 3133 3132 3130 3130 3128 3126 3124 3125 3122 3118
3161 3160 3159 3156 3153 3151 3149 3147 3145 3143 3140 3138 3136 3133 3132 3131 3134 3134 3134 3135 3136 3136 3138 3140 3138 3138 3138 3137 3137 3136 3135 3136 3134 3134 3132 3132 3132 3131 3129 3128 3128 3126 3125 3123 3122 3120 3118
3160 3158 3157 3157 3155 3152 3150 3148 3146 3145 3142 3141 3139 3137 3135 3133 3133 3134 3136 3136 3136 3137 3138 3140 3137 3137 3136 3138 3138 3136 3135 3134 3133 3132 3133 3132 3130 3128 3127 3127 3126 3126 3123 3121 3118 3115 3114
3160 3159 3156 3154 3153 3153 3151 3148 3146 3145 3144 3142 3140 3139 3138 3137 3136 3136 3135 3136 3137 3138 3136 3138 3137 3137 3137 3136 3136 3135 3134 3134 3132 3131 3130 3129 3127 3127 3127 3126 3125 3124 3122 3118 3114 3112 3111
3157 3157 3156 3154 3152 3150 3149 3148 3147 3145 3143 3143 3141 3140 3139 3138 3137 3136 3136 3136 3138 3135 3138 3138 3136 3135 3135 3135 3134 3133 3132 3131 3131 3130 3129 3127 3126 3126 3126 3125 3124 3122 3121 3118 3117 3115 3113
3155 3154 3153 3153 3152 3149 3148 3147 3146 3145 3144 3142 3141 3139 3138 3137 3137 3136 3135 3135 3134 3134 3134 3135 3135 3134 3134 3133 3133 3132 3130 3129 3128 3128 3127 3125 3125 3125 3125 3124 3123 3122 3122 3123 3128 3122 3113
3153 3152 3150 3150 3148 3147 3146 3145 3144 3143 3143 3142 3140 3139 3138 3136 3136 3135 3136 3134 3132 3132 3133 3132 3132 3131 3132 3132 3132 3130 3129 3128 3127 3127 3128 3125 3124 3124 3123 3122 3124 3121 3122 3123 3121 3117 3116
3149 3149 3148 3146 3146 3145 3144 3143 3141 3141 3141 3140 3140 3138 3137 3136 3136 3135 3135 3133 3131 3131 3131 3131 3130 3131 3130 3130 3130 3129 3127 3126 3125 3125 3125 3124 3124 3122 3122 3121 3121 3120 3121 3121 3120 3121 3114
3144 3144 3144 3144 3143 3142 3141 3140 3140 3139 3138 3138 3138 3136 3135 3135 3135 3134 3133 3133 3132 3130 3130 3130 3128 3127 3127 3126 3126 3126 3125 3125 3123 3123 3123 3123 3122 3121 3119 3118 3117 3118 3118 3119 3120 3117 3113
3138 3139 3139 3139 3139 3138 3137 3136 3137 3136 3135 3134 3135 3134 3132 3131 3133 3131 3131 3131 3130 3129 3128 3127 3126 3125 3124 3123 3122 3123 3122 3122 3121 3120 3120 3120 3118 3116 3117 3115 3114 3114 3114 3115 3116 3112 3108
3132 3133 3133 3133 3133 3135 3134 3132 3132 3132 3131 3130 3130 3129 3128 3127 3128 3127 3127 3127 3127 3126 3125 3124 3124 3123 3122 3121 3122 3118 3118 3118 3118 3118 3117 3116 3114 3114 3113 3113 3111 3110 3109 3110 3110 3107 3099
3124 3125 3126 3127 3127 3127 3128 3129 3128 3129 3127 3127 3127 3128 3124 3121 3121 3123 3123 3122 3123 3123 3122 3121 3120 3119 3118 3118 3118 3116 3116 3115 3115 3115 3114 3112 3109 3110 3109 3109 3108 3106 3104 3104 3104 3099 3089
3118 3119 3120 3120 3120 3121 3121 3123 3121 3123 3123 3124 3121 3123 3122 3119 3116 3114 3118 3121 3119 3118 3118 3117 3115 3115 3114 3113 3111 3111 3111 3111 3111 3110 3110 3109 3103 3103 3101 3100 3099 3095 3094 3094 3090 3087 3086
3111 3111 3112 3114 3114 3115 3116 3115 3115 3114 3115 3117 3116 3115 3116 3116 3115 3112 3108 3107 3113 3113 3112 3112 3112 3112 3111 3110 3110 3108 3106 3106 3104 3103 3103 3102 3097 3095 3089 3092 3090 3082 3081 3078 3076 3073 3069
3103 3104 3105 3105 3106 3107 3108 3108 3109 3110 3110 3110 3110 3108 3108 3109 3108 3109 3107 3104 3104 3105 3106 3105 3104 3103 3104 3104 3103 3102 3101 3099 3099 3096 3097 3093 3092 3091 3080 3082 3080 3070 3065 3065 3063 3063 3063
3094 3095 3097 3098 3099 3100 3100 3101 3102 3101 3102 3104 3104 3104 3103 3101 3103 3102 3101 3101 3101 3099 3098 3098 3098 3099 3099 3096 3094 3091 3091 3090 3089 3089 3088 3084 3086 3088 3079 3080 3075 3061 3059 3059 3059 3058 3057
3086 3087 3089 3089 3091 3091 3094 3094 3094 3094 3094 3095 3098 3098 3096 3095 3097 3097 3095 3094 3094 3094 3093 3092 3091 3091 3090 3090 3090 3085 3083 3078 3077 3077 3079 3078 3079 3080 3077 3073 3062 3056 3057 3055 3052 3051 3049
3078 3079 3080 3082 3083 3084 3085 3086 3088 3087 3088 3088 3089 3090 3092 3090 3089 3090 3089 3088 3088 3088 3088 3087 3086 3085 3083 3082 3082 3079 3078 3078 3075 3073 3074 3074 3074 3074 3074 3072 3063 3054 3054 3052 3049 3045 3040
3070 3070 3070 3073 3075 3075 3075 3077 3078 3079 3079 3079 3081 3082 3081 3085 3084 3084 3082 3082 3083 3082 3081 3080 3079 3078 3077 3074 3073 3072 3071 3070 3070 3068 3068 3069 3069 3068 3067 3063 3054 3048 3047 3046 3045 3043 3036
3060 3061 3063 3064 3067 3066 3068 3069 3071 3071 3072 3073 3074 3074 3076 3075 3077 3078 3075 3074 3073 3073 3074 3074 3074 3070 3070 3071 3068 3066 3065 3065 3063 3062 3062 3064 3064 3062 3062 3059 3052 3043 3043 3044 3039 3032 3027
3052 3053 3053 3056 3058 3058 3061 3062 3063 3064 3065 3067 3067 3068 3068 3069 3070 3070 3070 3068 3067 3066 3067 3066 3067 3066 3065 3064 3063 3063 3061 3060 3060 3058 3059 3058 3059 3055 3054 3047 3045 3041 3035 3033 3028 3022 3017